Location: A�t Bou Chrif
(32.7193°N, 5.2385°W)
Time: 03:55:50
(UTC+00:00)

USA 238 DEB - Pass Details

Date: 08 August 2020
Orbit: 1006 x 1206 km, 63.4° (Epoch: 17 September)

Event Time Altitude Azimuth Distance (km) Brightness Sun altitude
Rises 20:24:28 0° 179° (S) 3,715 6.2 -14.5°
Reaches altitude 10° 20:27:21 10° 169° (S) 2,773 5.5 -15.1°
Maximum altitude 20:32:53 30° 110° (ESE) 1,731 4.2 -16.1°
Drops below altitude 10° 20:38:32 10° 52° (NE) 2,847 5.7 -17.1°
Sets 20:41:31 0° 42° (NE) 3,831 6.5 -17.6°
